This is the latest recevied weather packets stored in our database for station/object W4GAP. If no packets are shown the sender has not sent any weather packets the latest 10 day(s).
| Time | Temp. | Humidity | Pressure | Rain* | Wind** | Luminosity | Snow |
|---|---|---|---|---|---|---|---|
| 1777496346 | 26.11° C | 66% | 1007.2 hPa | 0 mm | - | 35 W/m² | - |
| 1777496042 | 26.11° C | 66% | 1007.2 hPa | 0 mm | - | 70 W/m² | - |
| 1777495738 | 26.11° C | 68% | 1007.4 hPa | 0 mm | - | 41 W/m² | - |
| 1777495435 | 26.11° C | 68% | 1007.4 hPa | 0 mm | - | 53 W/m² | - |
| 1777495130 | 26.11° C | 67% | 1007.1 hPa | 0 mm | - | 54 W/m² | - |
| 1777494828 | 26.11° C | 67% | 1007.2 hPa | 0 mm | - | 56 W/m² | - |
| 1777494525 | 26.67° C | 66% | 1007.6 hPa | 0 mm | - | 59 W/m² | - |
| 1777494223 | 26.67° C | 64% | 1007.9 hPa | 0 mm | - | 72 W/m² | - |
| 1777493919 | 26.67° C | 66% | 1007.7 hPa | 0 mm | - | 46 W/m² | - |
| 1777493618 | 26.11° C | 66% | 1008 hPa | 0 mm | - | 64 W/m² | - |
| 1777493315 | 26.11° C | 66% | 1008.3 hPa | 0 mm | - | 55 W/m² | - |
| 1777493011 | 26.67° C | 64% | 1008.2 hPa | 0 mm | - | 38 W/m² | - |
| 1777492708 | 26.11° C | 66% | 1008.2 hPa | 0 mm | - | 72 W/m² | - |
| 1777492407 | 26.11° C | 68% | 1008.5 hPa | 0 mm | - | 89 W/m² | - |
| 1777492106 | 25.56° C | 70% | 1008.8 hPa | 0 mm | - | 114 W/m² | - |
| 1777491802 | 25.56° C | 70% | 1008.7 hPa | 0 mm | - | 28 W/m² | - |
| 1777491499 | 25.56° C | 71% | 1008.8 hPa | 0 mm | - | 39 W/m² | - |
| 1777491196 | 25.56° C | 69% | 1008.6 hPa | 0 mm | - | 69 W/m² | - |
| 1777490892 | 25.56° C | 69% | 1008.4 hPa | 0 mm | - | 126 W/m² | - |
| 1777490588 | 26.11° C | 69% | 1008.7 hPa | 0 mm | - | 273 W/m² | - |
| 1777490284 | 26.67° C | 67% | 1008.7 hPa | 0 mm | - | 35 W/m² | - |
| 1777489982 | 26.67° C | 67% | 1008.8 hPa | 0 mm | - | 533 W/m² | - |
| 1777489680 | 26.67° C | 68% | 1008.5 hPa | 0 mm | - | 32 W/m² | - |
| 1777489376 | 26.67° C | 66% | 1008.7 hPa | 0 mm | - | 300 W/m² | - |
| 1777489073 | 26.67° C | 69% | 1009 hPa | 0 mm | - | 78 W/m² | - |
* Rain latest hour (hover to see other rain measurements)
** Current wind speed in m/s (hover to see current wind gust speed)